| time (UTC) | temp F | wind direction | speed MPH | gust MPH | rain 1hr in | rain 24hr in | rain mn in | humidity % | barometer mb |
| 20260831101629 | 50 | 267 | 1.0 | 3.0 | 0.00 | 0.00 | 0.00 | 75 | 1017.0 |
| 20260831101041 | 50 | 273 | 1.0 | 3.0 | 0.00 | 0.00 | 0.00 | 74 | 1017.1 |
| 20260831100532 | 50 | 246 | 1.0 | 3.0 | 0.00 | 0.00 | 0.00 | 74 | 1017.1 |
| 20260831100046 | 50 | 245 | 1.0 | 3.0 | 0.00 | 0.00 | 0.00 | 74 | 1016.9 |
| 20260831095535 | 50 | 246 | 1.0 | 3.0 | 0.00 | 0.00 | 0.00 | 74 | 1016.9 |
| 20260831095031 | 50 | 244 | 1.0 | 3.0 | 0.00 | 0.00 | 0.00 | 74 | 1016.9 |
| 20260831094643 | 50 | 248 | 1.0 | 4.0 | 0.00 | 0.00 | 0.00 | 73 | 1016.8 |
| 20260831094033 | 51 | 249 | 1.0 | 4.0 | 0.00 | 0.00 | 0.00 | 73 | 1016.8 |
| 20260831093529 | 51 | 244 | 2.0 | 3.0 | 0.00 | 0.00 | 0.00 | 73 | 1016.8 |
| 20260831093137 | 51 | 246 | 1.0 | 3.0 | 0.00 | 0.00 | 0.00 | 73 | 1016.8 |
| 20260831092529 | 51 | 240 | 0.0 | 0.0 | 0.00 | 0.00 | 0.00 | 72 | 1016.9 |
| 20260831092028 | 51 | 240 | 0.0 | 0.0 | 0.00 | 0.00 | 0.00 | 72 | 1016.9 |
| 20260831091647 | 51 | 240 | 0.0 | 1.0 | 0.00 | 0.00 | 0.00 | 72 | 1016.9 |
| 20260831091026 | 51 | 240 | 0.0 | 2.0 | 0.00 | 0.00 | 0.00 | 72 | 1016.8 |
| 20260831090524 | 51 | 239 | 1.0 | 3.0 | 0.00 | 0.00 | 0.00 | 71 | 1016.9 |
| 20260831090216 | 52 | 239 | 1.0 | 3.0 | 0.00 | 0.00 | 0.00 | 71 | 1016.9 |
| 20260831085534 | 52 | 228 | 0.0 | 4.0 | 0.00 | 0.00 | 0.00 | 70 | 1016.9 |
| 20260831085026 | 52 | 244 | 2.0 | 4.0 | 0.00 | 0.00 | 0.00 | 70 | 1016.9 |
| 20260831084634 | 52 | 244 | 2.0 | 4.0 | 0.00 | 0.00 | 0.00 | 71 | 1016.8 |
| 20260831084033 | 52 | 242 | 0.0 | 2.0 | 0.00 | 0.00 | 0.00 | 71 | 1016.9 |
| 20260831083542 | 52 | 242 | 0.0 | 0.0 | 0.00 | 0.00 | 0.00 | 71 | 1017.1 |
| 20260831083127 | 52 | 229 | 0.0 | 1.0 | 0.00 | 0.00 | 0.00 | 70 | 1017.0 |
| 20260831082518 | 52 | 228 | 0.0 | 3.0 | 0.00 | 0.00 | 0.00 | 70 | 1017.1 |
| 20260831082034 | 52 | 228 | 1.0 | 3.0 | 0.00 | 0.00 | 0.00 | 70 | 1017.2 |
| 20260831081547 | 52 | 229 | 1.0 | 3.0 | 0.00 | 0.00 | 0.00 | 70 | 1017.2 |
| 20260831081027 | 52 | 238 | 1.0 | 3.0 | 0.00 | 0.00 | 0.00 | 69 | 1017.2 |
| 20260831080533 | 52 | 234 | 1.0 | 2.0 | 0.00 | 0.00 | 0.00 | 69 | 1017.1 |
| 20260831080156 | 53 | 235 | 1.0 | 3.0 | 0.00 | 0.00 | 0.00 | 69 | 1017.1 |
| 20260831075528 | 53 | 244 | 1.0 | 4.0 | 0.00 | 0.00 | 0.00 | 69 | 1017.0 |
| 20260831075024 | 53 | 243 | 2.0 | 4.0 | 0.00 | 0.00 | 0.00 | 69 | 1016.9 |
| 20260831074631 | 53 | 234 | 1.0 | 3.0 | 0.00 | 0.00 | 0.00 | 68 | 1016.9 |
| 20260831074025 | 53 | 240 | 2.0 | 3.0 | 0.00 | 0.00 | 0.00 | 68 | 1017.0 |
| 20260831073525 | 53 | 242 | 1.0 | 3.0 | 0.00 | 0.00 | 0.00 | 68 | 1017.0 |
| 20260831073127 | 53 | 226 | 1.0 | 3.0 | 0.00 | 0.00 | 0.00 | 67 | 1016.9 |
| 20260831072521 | 53 | 236 | 1.0 | 3.0 | 0.00 | 0.00 | 0.00 | 67 | 1017.0 |
| 20260831072027 | 54 | 227 | 2.0 | 3.0 | 0.00 | 0.00 | 0.00 | 67 | 1016.9 |
| 20260831071625 | 54 | 238 | 1.0 | 3.0 | 0.00 | 0.00 | 0.00 | 66 | 1016.9 |
| 20260831071019 | 54 | 252 | 2.0 | 3.0 | 0.00 | 0.00 | 0.00 | 66 | 1016.8 |
| 20260831070541 | 54 | 228 | 1.0 | 3.0 | 0.00 | 0.00 | 0.00 | 66 | 1016.9 |
| 20260831070137 | 54 | 227 | 2.0 | 3.0 | 0.00 | 0.00 | 0.00 | 66 | 1017.1 |
| 20260831065525 | 54 | 228 | 2.0 | 3.0 | 0.00 | 0.00 | 0.00 | 66 | 1017.1 |
| 20260831065025 | 54 | 242 | 1.0 | 3.0 | 0.00 | 0.00 | 0.00 | 66 | 1017.1 |
| 20260831064629 | 54 | 234 | 1.0 | 3.0 | 0.00 | 0.00 | 0.00 | 66 | 1017.1 |
| 20260831064028 | 55 | 231 | 2.0 | 4.0 | 0.00 | 0.00 | 0.00 | 66 | 1017.2 |
| 20260831063521 | 55 | 201 | 0.0 | 4.0 | 0.00 | 0.00 | 0.00 | 65 | 1017.1 |
| 20260831063133 | 55 | 227 | 1.0 | 3.0 | 0.00 | 0.00 | 0.00 | 64 | 1017.1 |
| 20260831062525 | 55 | 241 | 1.0 | 3.0 | 0.00 | 0.00 | 0.00 | 64 | 1017.1 |
| 20260831062035 | 55 | 227 | 1.0 | 3.0 | 0.00 | 0.00 | 0.00 | 64 | 1017.1 |
| 20260831061635 | 55 | 234 | 1.0 | 2.0 | 0.00 | 0.00 | 0.00 | 64 | 1017.0 |
| 20260831061031 | 56 | 235 | 1.0 | 3.0 | 0.00 | 0.00 | 0.00 | 63 | 1017.1 |
| 20260831060520 | 56 | 229 | 0.0 | 3.0 | 0.00 | 0.00 | 0.00 | 63 | 1017.2 |
| 20260831060143 | 56 | 233 | 1.0 | 3.0 | 0.00 | 0.00 | 0.00 | 63 | 1017.1 |
| 20260831055542 | 56 | 224 | 1.0 | 4.0 | 0.00 | 0.00 | 0.00 | 62 | 1017.1 |
| 20260831055042 | 56 | 236 | 0.0 | 4.0 | 0.00 | 0.00 | 0.00 | 62 | 1017.2 |
| 20260831054633 | 56 | 251 | 1.0 | 4.0 | 0.00 | 0.00 | 0.00 | 62 | 1017.0 |
| 20260831054042 | 57 | 233 | 1.0 | 4.0 | 0.00 | 0.00 | 0.00 | 62 | 1017.2 |
| 20260831053537 | 57 | 204 | 0.0 | 4.0 | 0.00 | 0.00 | 0.00 | 61 | 1017.1 |
| 20260831053134 | 57 | 227 | 0.0 | 0.0 | 0.00 | 0.00 | 0.00 | 61 | 1017.2 |
| 20260831052540 | 58 | 232 | 0.0 | 1.0 | 0.00 | 0.00 | 0.00 | 60 | 1017.1 |
| 20260831052025 | 58 | 228 | 0.0 | 2.0 | 0.00 | 0.00 | 0.00 | 60 | 1017.2 |
| 20260831051632 | 58 | 197 | 1.0 | 3.0 | 0.00 | 0.00 | 0.00 | 59 | 1017.2 |
| 20260831051021 | 58 | 196 | 0.0 | 3.0 | 0.00 | 0.00 | 0.00 | 59 | 1017.1 |
| 20260831050519 | 58 | 221 | 1.0 | 3.0 | 0.00 | 0.00 | 0.00 | 60 | 1017.2 |
| 20260831050139 | 58 | 240 | 1.0 | 3.0 | 0.00 | 0.00 | 0.00 | 59 | 1017.2 |
| 20260831045527 | 59 | 222 | 1.0 | 3.0 | 0.00 | 0.00 | 0.00 | 59 | 1017.1 |
| 20260831045025 | 59 | 209 | 1.0 | 3.0 | 0.00 | 0.00 | 0.00 | 58 | 1016.9 |
| 20260831044623 | 59 | 234 | 1.0 | 3.0 | 0.00 | 0.00 | 0.00 | 57 | 1017.1 |
| 20260831044025 | 60 | 237 | 0.0 | 3.0 | 0.00 | 0.00 | 0.00 | 57 | 1017.0 |
| 20260831043523 | 60 | 212 | 1.0 | 5.0 | 0.00 | 0.00 | 0.00 | 56 | 1017.0 |
| 20260831043150 | 60 | 227 | 1.0 | 5.0 | 0.00 | 0.00 | 0.00 | 56 | 1017.1 |
| 20260831042544 | 60 | 228 | 1.0 | 5.0 | 0.00 | 0.00 | 0.00 | 55 | 1017.0 |
| 20260831042041 | 60 | 232 | 0.0 | 3.0 | 0.00 | 0.00 | 0.00 | 56 | 1017.0 |
| 20260831041659 | 60 | 288 | 0.0 | 3.0 | 0.00 | 0.00 | 0.00 | 56 | 1016.9 |
| 20260831041024 | 60 | 210 | 1.0 | 4.0 | 0.00 | 0.00 | 0.00 | 56 | 1016.8 |
| 20260831040524 | 60 | 229 | 0.0 | 3.0 | 0.00 | 0.00 | 0.00 | 57 | 1016.7 |
| 20260831040124 | 60 | 217 | 0.0 | 3.0 | 0.00 | 0.00 | 0.00 | 56 | 1016.7 |
| 20260831035550 | 61 | 248 | 1.0 | 5.0 | 0.00 | 0.00 | 0.00 | 55 | 1016.7 |
| 20260831035026 | 61 | 239 | 2.0 | 5.0 | 0.00 | 0.00 | 0.00 | 54 | 1016.6 |
| 20260831034633 | 62 | 201 | 2.0 | 5.0 | 0.00 | 0.00 | 0.00 | 53 | 1016.7 |
| 20260831034040 | 62 | 284 | 0.0 | 7.0 | 0.00 | 0.00 | 0.00 | 53 | 1016.7 |
| 20260831033519 | 62 | 297 | 2.0 | 7.0 | 0.00 | 0.00 | 0.00 | 53 | 1016.7 |
| 20260831033139 | 62 | 150 | 1.0 | 5.0 | 0.00 | 0.00 | 0.00 | 52 | 1016.8 |
| 20260831032537 | 62 | 248 | 0.0 | 4.0 | 0.00 | 0.00 | 0.00 | 52 | 1016.8 |
| 20260831032024 | 62 | 194 | 2.0 | 4.0 | 0.00 | 0.00 | 0.00 | 52 | 1016.7 |
| 20260831031634 | 63 | 233 | 0.0 | 5.0 | 0.00 | 0.00 | 0.00 | 51 | 1016.8 |
| 20260831031042 | 63 | 191 | 1.0 | 9.0 | 0.00 | 0.00 | 0.00 | 51 | 1016.7 |
| 20260831030531 | 63 | 164 | 3.0 | 9.0 | 0.00 | 0.00 | 0.00 | 51 | 1016.6 |
| 20260831030142 | 63 | 296 | 2.0 | 7.0 | 0.00 | 0.00 | 0.00 | 51 | 1016.6 |
| 20260831025540 | 63 | 256 | 0.0 | 5.0 | 0.00 | 0.00 | 0.00 | 51 | 1016.6 |
| 20260831025020 | 63 | 303 | 2.0 | 5.0 | 0.00 | 0.00 | 0.00 | 51 | 1016.6 |
| 20260831024652 | 63 | 267 | 1.0 | 4.0 | 0.00 | 0.00 | 0.00 | 51 | 1016.4 |
| 20260831024041 | 64 | 254 | 0.0 | 4.0 | 0.00 | 0.00 | 0.00 | 50 | 1016.6 |
| 20260831023541 | 64 | 247 | 1.0 | 5.0 | 0.00 | 0.00 | 0.00 | 50 | 1016.5 |
| 20260831023136 | 64 | 254 | 1.0 | 5.0 | 0.00 | 0.00 | 0.00 | 49 | 1016.5 |
| 20260831022529 | 64 | 246 | 1.0 | 5.0 | 0.00 | 0.00 | 0.00 | 50 | 1016.6 |
| 20260831022019 | 64 | 248 | 2.0 | 5.0 | 0.00 | 0.00 | 0.00 | 49 | 1016.5 |
| 20260831021648 | 64 | 256 | 0.0 | 4.0 | 0.00 | 0.00 | 0.00 | 49 | 1016.4 |
| 20260831021021 | 65 | 275 | 1.0 | 4.0 | 0.00 | 0.00 | 0.00 | 49 | 1016.4 |
| 20260831020526 | 65 | 277 | 1.0 | 4.0 | 0.00 | 0.00 | 0.00 | 49 | 1016.4 |
| 20260831020220 | 65 | 246 | 1.0 | 5.0 | 0.00 | 0.00 | 0.00 | 49 | 1016.4 |
| 20260831015524 | 65 | 232 | 2.0 | 7.0 | 0.00 | 0.00 | 0.00 | 48 | 1016.4 |
| 20260831015044 | 66 | 154 | 1.0 | 6.0 | 0.00 | 0.00 | 0.00 | 48 | 1016.4 |
| 20260831014628 | 66 | 224 | 1.0 | 5.0 | 0.00 | 0.00 | 0.00 | 48 | 1016.5 |
| 20260831014033 | 66 | 235 | 2.0 | 5.0 | 0.00 | 0.00 | 0.00 | 47 | 1016.6 |
| 20260831013542 | 66 | 206 | 0.0 | 10.0 | 0.00 | 0.00 | 0.00 | 47 | 1016.5 |
| 20260831013128 | 67 | 275 | 1.0 | 4.0 | 0.00 | 0.00 | 0.00 | 47 | 1016.6 |
| 20260831012539 | 67 | 231 | 2.0 | 9.0 | 0.00 | 0.00 | 0.00 | 47 | 1016.5 |
| 20260831012020 | 67 | 252 | 0.0 | 9.0 | 0.00 | 0.00 | 0.00 | 47 | 1016.5 |
| 20260831011657 | 67 | 254 | 2.0 | 5.0 | 0.00 | 0.00 | 0.00 | 46 | 1016.4 |
| 20260831011044 | 67 | 242 | 1.0 | 5.0 | 0.00 | 0.00 | 0.00 | 46 | 1016.4 |
| 20260831010536 | 67 | 272 | 2.0 | 5.0 | 0.00 | 0.00 | 0.00 | 46 | 1016.4 |
| 20260831010107 | 67 | 290 | 0.0 | 3.0 | 0.00 | 0.00 | 0.00 | 46 | 1016.3 |
| 20260831005524 | 67 | 254 | 0.0 | 4.0 | 0.00 | 0.00 | 0.00 | 46 | 1016.4 |
| 20260831005035 | 67 | 265 | 1.0 | 5.0 | 0.00 | 0.00 | 0.00 | 45 | 1016.2 |
| 20260831004628 | 67 | 273 | 1.0 | 4.0 | 0.00 | 0.00 | 0.00 | 46 | 1016.2 |
| 20260831004038 | 68 | 256 | 1.0 | 6.0 | 0.00 | 0.00 | 0.00 | 45 | 1016.3 |
| 20260831003539 | 68 | 221 | 2.0 | 6.0 | 0.00 | 0.00 | 0.00 | 45 | 1016.3 |
| 20260831003150 | 68 | 236 | 2.0 | 7.0 | 0.00 | 0.00 | 0.00 | 45 | 1016.2 |
| 20260831002517 | 69 | 224 | 3.0 | 7.0 | 0.00 | 0.00 | 0.00 | 43 | 1016.3 |
| 20260831002030 | 69 | 240 | 2.0 | 6.0 | 0.00 | 0.00 | 0.00 | 44 | 1016.3 |
| 20260831001621 | 69 | 350 | 2.0 | 6.0 | 0.00 | 0.00 | 0.00 | 43 | 1016.4 |
| 20260831001026 | 70 | 224 | 1.0 | 8.0 | 0.00 | 0.00 | 0.00 | 43 | 1016.3 |
| 20260831000543 | 70 | 221 | 2.0 | 9.0 | 0.00 | 0.00 | 0.00 | 42 | 1016.1 |
| 20260831000133 | 71 | 241 | 3.0 | 9.0 | 0.00 | 0.00 | 0.00 | 41 | 1016.2 |
| 20260830235525 | 71 | 233 | 3.0 | 10.0 | 0.00 | 0.00 | 0.00 | 40 | 1016.3 |
| 20260830235024 | 72 | 301 | 4.0 | 10.0 | 0.00 | 0.00 | 0.00 | 39 | 1016.3 |
| 20260830234632 | 72 | 61 | 2.0 | 6.0 | 0.00 | 0.00 | 0.00 | 40 | 1016.1 |
| 20260830234042 | 72 | 231 | 1.0 | 8.0 | 0.00 | 0.00 | 0.00 | 40 | 1016.0 |
| 20260830233538 | 72 | 348 | 2.0 | 7.0 | 0.00 | 0.00 | 0.00 | 39 | 1016.1 |
| 20260830233148 | 72 | 159 | 2.0 | 6.0 | 0.00 | 0.00 | 0.00 | 39 | 1016.1 |
| 20260830232534 | 72 | 202 | 3.0 | 7.0 | 0.00 | 0.00 | 0.00 | 39 | 1016.0 |
| 20260830232042 | 72 | 217 | 1.0 | 8.0 | 0.00 | 0.00 | 0.00 | 41 | 1016.1 |
| 20260830231633 | 71 | 5 | 3.0 | 6.0 | 0.00 | 0.00 | 0.00 | 40 | 1016.0 |
| 20260830231037 | 71 | 257 | 1.0 | 7.0 | 0.00 | 0.00 | 0.00 | 40 | 1016.1 |
| 20260830230537 | 72 | 297 | 2.0 | 6.0 | 0.00 | 0.00 | 0.00 | 39 | 1016.1 |
| 20260830230146 | 73 | 215 | 2.0 | 6.0 | 0.00 | 0.00 | 0.00 | 38 | 1016.0 |
| 20260830225537 | 73 | 244 | 2.0 | 11.0 | 0.00 | 0.00 | 0.00 | 38 | 1016.2 |
| 20260830225038 | 72 | 257 | 3.0 | 11.0 | 0.00 | 0.00 | 0.00 | 37 | 1016.0 |
| 20260830224634 | 73 | 304 | 3.0 | 9.0 | 0.00 | 0.00 | 0.00 | 38 | 1016.2 |
| 20260830224040 | 73 | 222 | 3.0 | 9.0 | 0.00 | 0.00 | 0.00 | 37 | 1016.1 |
| 20260830223541 | 73 | 235 | 1.0 | 8.0 | 0.00 | 0.00 | 0.00 | 38 | 1016.1 |
| 20260830223138 | 73 | 231 | 3.0 | 8.0 | 0.00 | 0.00 | 0.00 | 37 | 1016.0 |
| 20260830222518 | 73 | 244 | 2.0 | 7.0 | 0.00 | 0.00 | 0.00 | 37 | 1016.3 |
| 20260830222037 | 73 | 238 | 3.0 | 7.0 | 0.00 | 0.00 | 0.00 | 38 | 1016.0 |
| 20260830221624 | 72 | 261 | 2.0 | 8.0 | 0.00 | 0.00 | 0.00 | 39 | 1016.1 |
| 20260830221024 | 72 | 250 | 2.0 | 9.0 | 0.00 | 0.00 | 0.00 | 39 | 1016.1 |
| 20260830220525 | 72 | 211 | 2.0 | 9.0 | 0.00 | 0.00 | 0.00 | 38 | 1016.3 |
| 20260830220131 | 72 | 15 | 2.0 | 7.0 | 0.00 | 0.00 | 0.00 | 39 | 1016.4 |
| 20260830215540 | 71 | 277 | 3.0 | 7.0 | 0.00 | 0.00 | 0.00 | 39 | 1016.3 |
| 20260830215042 | 71 | 39 | 1.0 | 5.0 | 0.00 | 0.00 | 0.00 | 40 | 1016.4 |
| 20260830214634 | 71 | 274 | 0.0 | 6.0 | 0.00 | 0.00 | 0.00 | 40 | 1016.4 |
| 20260830214028 | 70 | 235 | 1.0 | 10.0 | 0.00 | 0.00 | 0.00 | 40 | 1016.5 |
| 20260830213524 | 70 | 155 | 2.0 | 10.0 | 0.00 | 0.00 | 0.00 | 40 | 1016.6 |
| 20260830213106 | 71 | 350 | 1.0 | 6.0 | 0.00 | 0.00 | 0.00 | 40 | 1016.6 |
| 20260830212519 | 70 | 269 | 1.0 | 6.0 | 0.00 | 0.00 | 0.00 | 40 | 1016.6 |
| 20260830212032 | 71 | 273 | 2.0 | 9.0 | 0.00 | 0.00 | 0.00 | 39 | 1016.6 |
| 20260830211610 | 71 | 63 | 3.0 | 12.0 | 0.00 | 0.00 | 0.00 | 39 | 1016.5 |
| 20260830211028 | 71 | 264 | 3.0 | 12.0 | 0.00 | 0.00 | 0.00 | 39 | 1016.7 |
| 20260830210529 | 71 | 254 | 1.0 | 9.0 | 0.00 | 0.00 | 0.00 | 38 | 1016.6 |
| 20260830210217 | 72 | 316 | 3.0 | 9.0 | 0.00 | 0.00 | 0.00 | 38 | 1016.8 |
| 20260830205541 | 72 | 5 | 1.0 | 5.0 | 0.00 | 0.00 | 0.00 | 38 | 1016.7 |
| 20260830205026 | 72 | 174 | 2.0 | 6.0 | 0.00 | 0.00 | 0.00 | 37 | 1016.7 |
| 20260830204654 | 72 | 249 | 3.0 | 10.0 | 0.00 | 0.00 | 0.00 | 37 | 1016.8 |
| 20260830204028 | 72 | 271 | 2.0 | 9.0 | 0.00 | 0.00 | 0.00 | 37 | 1016.6 |
| 20260830203523 | 71 | 177 | 2.0 | 9.0 | 0.00 | 0.00 | 0.00 | 37 | 1016.6 |
| 20260830203110 | 71 | 324 | 2.0 | 6.0 | 0.00 | 0.00 | 0.00 | 38 | 1016.7 |
| 20260830202542 | 71 | 265 | 2.0 | 11.0 | 0.00 | 0.00 | 0.00 | 38 | 1016.7 |
| 20260830202033 | 71 | 51 | 2.0 | 11.0 | 0.00 | 0.00 | 0.00 | 39 | 1016.7 |
| 20260830201641 | 71 | 240 | 3.0 | 6.0 | 0.00 | 0.00 | 0.00 | 37 | 1016.6 |
| 20260830201034 | 71 | 360 | 2.0 | 7.0 | 0.00 | 0.00 | 0.00 | 38 | 1016.7 |
| 20260830200525 | 70 | 181 | 2.0 | 4.0 | 0.00 | 0.00 | 0.00 | 38 | 1016.9 |
| 20260830200159 | 70 | 259 | 1.0 | 7.0 | 0.00 | 0.00 | 0.00 | 37 | 1016.8 |
| 20260830195541 | 71 | 238 | 3.0 | 9.0 | 0.00 | 0.00 | 0.00 | 37 | 1017.0 |
| 20260830195025 | 70 | 193 | 2.0 | 9.0 | 0.00 | 0.00 | 0.00 | 38 | 1017.0 |
| 20260830194637 | 70 | 271 | 3.0 | 8.0 | 0.00 | 0.00 | 0.00 | 39 | 1017.0 |
| 20260830194041 | 70 | 45 | 3.0 | 9.0 | 0.00 | 0.00 | 0.00 | 39 | 1017.1 |
| 20260830193540 | 70 | 298 | 4.0 | 9.0 | 0.00 | 0.00 | 0.00 | 38 | 1016.9 |
| 20260830193138 | 70 | 29 | 2.0 | 9.0 | 0.00 | 0.00 | 0.00 | 38 | 1017.1 |
| 20260830192537 | 70 | 13 | 2.0 | 9.0 | 0.00 | 0.00 | 0.00 | 38 | 1017.2 |
| 20260830192030 | 71 | 320 | 2.0 | 10.0 | 0.00 | 0.00 | 0.00 | 37 | 1017.3 |
| 20260830191635 | 71 | 88 | 2.0 | 10.0 | 0.00 | 0.00 | 0.00 | 38 | 1017.2 |
| 20260830191037 | 70 | 259 | 3.0 | 10.0 | 0.00 | 0.00 | 0.00 | 38 | 1017.3 |
| 20260830190539 | 70 | 333 | 4.0 | 10.0 | 0.00 | 0.00 | 0.00 | 37 | 1017.3 |
| 20260830190155 | 70 | 304 | 3.0 | 10.0 | 0.00 | 0.00 | 0.00 | 38 | 1017.4 |
| 20260830185530 | 70 | 40 | 2.0 | 11.0 | 0.00 | 0.00 | 0.00 | 37 | 1017.4 |
| 20260830185033 | 70 | 186 | 3.0 | 8.0 | 0.00 | 0.00 | 0.00 | 39 | 1017.3 |
| 20260830184634 | 69 | 163 | 2.0 | 7.0 | 0.00 | 0.00 | 0.00 | 38 | 1017.3 |
| 20260830184036 | 69 | 336 | 2.0 | 7.0 | 0.00 | 0.00 | 0.00 | 39 | 1017.4 |
| 20260830183532 | 68 | 261 | 1.0 | 8.0 | 0.00 | 0.00 | 0.00 | 40 | 1017.4 |
| 20260830183132 | 68 | 98 | 2.0 | 8.0 | 0.00 | 0.00 | 0.00 | 40 | 1017.6 |
| 20260830182531 | 68 | 174 | 2.0 | 6.0 | 0.00 | 0.00 | 0.00 | 40 | 1017.6 |
| 20260830182026 | 67 | 173 | 1.0 | 8.0 | 0.00 | 0.00 | 0.00 | 43 | 1017.4 |
| 20260830181646 | 67 | 31 | 2.0 | 8.0 | 0.00 | 0.00 | 0.00 | 41 | 1017.4 |
| 20260830181034 | 67 | 30 | 2.0 | 7.0 | 0.00 | 0.00 | 0.00 | 41 | 1017.3 |
| 20260830180532 | 67 | 304 | 2.0 | 6.0 | 0.00 | 0.00 | 0.00 | 41 | 1017.4 |
| 20260830180202 | 66 | 227 | 3.0 | 6.0 | 0.00 | 0.00 | 0.00 | 41 | 1017.5 |
| 20260830175529 | 66 | 107 | 2.0 | 8.0 | 0.00 | 0.00 | 0.00 | 43 | 1017.4 |
| 20260830175050 | 66 | 14 | 3.0 | 8.0 | 0.00 | 0.00 | 0.00 | 43 | 1017.5 |
| 20260830174626 | 66 | 5 | 0.0 | 6.0 | 0.00 | 0.00 | 0.00 | 44 | 1017.5 |
| 20260830174029 | 65 | 294 | 3.0 | 6.0 | 0.00 | 0.00 | 0.00 | 44 | 1017.5 |
| 20260830173537 | 64 | 338 | 2.0 | 9.0 | 0.00 | 0.00 | 0.00 | 44 | 1017.5 |
| 20260830173155 | 64 | 345 | 2.0 | 10.0 | 0.00 | 0.00 | 0.00 | 45 | 1017.4 |
| 20260830172520 | 63 | 317 | 3.0 | 5.0 | 0.00 | 0.00 | 0.00 | 46 | 1017.4 |
| 20260830172037 | 63 | 240 | 1.0 | 5.0 | 0.00 | 0.00 | 0.00 | 48 | 1017.4 |
| 20260830171631 | 62 | 305 | 2.0 | 4.0 | 0.00 | 0.00 | 0.00 | 47 | 1017.3 |
| 20260830171026 | 62 | 285 | 0.0 | 9.0 | 0.00 | 0.00 | 0.00 | 47 | 1017.4 |
| 20260830170546 | 62 | 233 | 3.0 | 11.0 | 0.00 | 0.00 | 0.00 | 47 | 1017.3 |
| 20260830170136 | 62 | 217 | 4.0 | 11.0 | 0.00 | 0.00 | 0.00 | 46 | 1017.4 |
| 20260830165535 | 62 | 157 | 1.0 | 6.0 | 0.00 | 0.00 | 0.00 | 48 | 1017.3 |
| 20260830165025 | 62 | 336 | 2.0 | 6.0 | 0.00 | 0.00 | 0.00 | 47 | 1017.5 |
| 20260830164637 | 62 | 265 | 2.0 | 6.0 | 0.00 | 0.00 | 0.00 | 49 | 1017.4 |
| 20260830164045 | 62 | 204 | 3.0 | 6.0 | 0.00 | 0.00 | 0.00 | 47 | 1017.3 |
| 20260830163525 | 61 | 158 | 0.0 | 8.0 | 0.00 | 0.00 | 0.00 | 49 | 1017.4 |
| 20260830163218 | 61 | 180 | 3.0 | 8.0 | 0.00 | 0.00 | 0.00 | 48 | 1017.3 |
| 20260830162534 | 61 | 250 | 2.0 | 7.0 | 0.00 | 0.00 | 0.00 | 48 | 1017.2 |
| 20260830162041 | 61 | 352 | 1.0 | 5.0 | 0.00 | 0.00 | 0.00 | 51 | 1017.3 |
| 20260830161718 | 61 | 216 | 1.0 | 8.0 | 0.00 | 0.00 | 0.00 | 49 | 1017.3 |
| 20260830161033 | 61 | 243 | 2.0 | 8.0 | 0.00 | 0.00 | 0.00 | 49 | 1017.3 |
| 20260830160537 | 61 | 352 | 1.0 | 7.0 | 0.00 | 0.00 | 0.00 | 50 | 1017.3 |
| 20260830160129 | 61 | 229 | 2.0 | 7.0 | 0.00 | 0.00 | 0.00 | 49 | 1017.3 |
| 20260830155541 | 61 | 180 | 1.0 | 6.0 | 0.00 | 0.00 | 0.00 | 50 | 1017.2 |
| 20260830155027 | 61 | 273 | 1.0 | 9.0 | 0.00 | 0.00 | 0.00 | 51 | 1017.2 |
| 20260830154611 | 60 | 183 | 2.0 | 9.0 | 0.00 | 0.00 | 0.00 | 52 | 1017.0 |
| 20260830154028 | 60 | 298 | 0.0 | 4.0 | 0.00 | 0.00 | 0.00 | 54 | 1016.9 |
| 20260830153531 | 59 | 236 | 0.0 | 4.0 | 0.00 | 0.00 | 0.00 | 56 | 1017.0 |
| 20260830153133 | 59 | 225 | 2.0 | 4.0 | 0.00 | 0.00 | 0.00 | 54 | 1017.2 |
| 20260830152530 | 58 | 227 | 0.0 | 3.0 | 0.00 | 0.00 | 0.00 | 56 | 1017.2 |
| 20260830152045 | 58 | 233 | 0.0 | 4.0 | 0.00 | 0.00 | 0.00 | 56 | 1017.3 |
| 20260830151648 | 57 | 298 | 0.0 | 7.0 | 0.00 | 0.00 | 0.00 | 56 | 1017.3 |
| 20260830151037 | 57 | 196 | 2.0 | 7.0 | 0.00 | 0.00 | 0.00 | 58 | 1017.2 |
| 20260830150541 | 57 | 227 | 0.0 | 3.0 | 0.00 | 0.00 | 0.00 | 58 | 1017.3 |
| 20260830150205 | 56 | 309 | 0.0 | 2.0 | 0.00 | 0.00 | 0.00 | 59 | 1017.3 |
| 20260830145537 | 56 | 219 | 0.0 | 5.0 | 0.00 | 0.00 | 0.00 | 59 | 1017.4 |
| 20260830145044 | 56 | 254 | 0.0 | 5.0 | 0.00 | 0.00 | 0.00 | 59 | 1017.4 |
| 20260830144654 | 56 | 243 | 0.0 | 4.0 | 0.00 | 0.00 | 0.00 | 59 | 1017.3 |
| 20260830144051 | 55 | 248 | 0.0 | 4.0 | 0.00 | 0.00 | 0.00 | 59 | 1017.4 |
| 20260830143543 | 55 | 197 | 1.0 | 3.0 | 0.00 | 0.00 | 0.00 | 60 | 1017.3 |
| 20260830143159 | 55 | 241 | 0.0 | 3.0 | 0.00 | 0.00 | 0.00 | 62 | 1017.5 |
| 20260830142544 | 54 | 230 | 1.0 | 3.0 | 0.00 | 0.00 | 0.00 | 61 | 1017.4 |
| 20260830142036 | 54 | 217 | 1.0 | 3.0 | 0.00 | 0.00 | 0.00 | 63 | 1017.5 |
| 20260830141609 | 53 | 205 | 0.0 | 1.0 | 0.00 | 0.00 | 0.00 | 64 | 1017.4 |
| 20260830141041 | 53 | 282 | 0.0 | 3.0 | 0.00 | 0.00 | 0.00 | 63 | 1017.3 |
| 20260830140525 | 52 | 254 | 0.0 | 3.0 | 0.00 | 0.00 | 0.00 | 64 | 1017.2 |
| 20260830140104 | 52 | 243 | 0.0 | 1.0 | 0.00 | 0.00 | 0.00 | 65 | 1016.9 |
| 20260830135537 | 51 | 255 | 0.0 | 4.0 | 0.00 | 0.00 | 0.00 | 66 | 1017.1 |
| 20260830135024 | 51 | 246 | 2.0 | 4.0 | 0.00 | 0.00 | 0.00 | 67 | 1017.0 |
| 20260830134645 | 51 | 241 | 2.0 | 4.0 | 0.00 | 0.00 | 0.00 | 67 | 1017.0 |
| 20260830134033 | 50 | 248 | 2.0 | 4.0 | 0.00 | 0.00 | 0.00 | 68 | 1017.1 |
| 20260830133534 | 51 | 243 | 2.0 | 4.0 | 0.00 | 0.00 | 0.00 | 67 | 1017.1 |
| 20260830133127 | 51 | 224 | 2.0 | 4.0 | 0.00 | 0.00 | 0.00 | 67 | 1017.1 |
| 20260830132523 | 50 | 240 | 1.0 | 4.0 | 0.00 | 0.00 | 0.00 | 66 | 1017.2 |
| 20260830132028 | 50 | 196 | 2.0 | 4.0 | 0.00 | 0.00 | 0.00 | 67 | 1017.3 |
| 20260830131614 | 50 | 226 | 2.0 | 4.0 | 0.00 | 0.00 | 0.00 | 67 | 1017.2 |
| 20260830131023 | 50 | 221 | 2.0 | 5.0 | 0.00 | 0.00 | 0.00 | 67 | 1017.2 |
| 20260830130518 | 50 | 220 | 3.0 | 5.0 | 0.00 | 0.00 | 0.00 | 68 | 1017.2 |
| 20260830130141 | 49 | 229 | 2.0 | 4.0 | 0.00 | 0.00 | 0.00 | 68 | 1017.1 |
| 20260830125524 | 49 | 232 | 2.0 | 5.0 | 0.00 | 0.00 | 0.00 | 68 | 1017.2 |
| 20260830125029 | 49 | 244 | 2.0 | 5.0 | 0.00 | 0.00 | 0.00 | 68 | 1017.2 |
| 20260830124632 | 49 | 227 | 3.0 | 5.0 | 0.00 | 0.00 | 0.00 | 68 | 1017.2 |
| 20260830124019 | 49 | 240 | 3.0 | 5.0 | 0.00 | 0.00 | 0.00 | 68 | 1017.3 |
| 20260830123525 | 49 | 238 | 2.0 | 4.0 | 0.00 | 0.00 | 0.00 | 69 | 1017.2 |
| 20260830123056 | 49 | 230 | 2.0 | 4.0 | 0.00 | 0.00 | 0.00 | 68 | 1017.2 |
| 20260830122543 | 49 | 261 | 2.0 | 5.0 | 0.00 | 0.00 | 0.00 | 68 | 1017.1 |
| 20260830122037 | 49 | 229 | 2.0 | 5.0 | 0.00 | 0.00 | 0.00 | 68 | 1017.2 |
| 20260830121658 | 49 | 254 | 1.0 | 5.0 | 0.00 | 0.00 | 0.00 | 69 | 1017.2 |
| 20260830121036 | 49 | 235 | 2.0 | 5.0 | 0.00 | 0.00 | 0.00 | 69 | 1017.1 |
| 20260830120528 | 49 | 234 | 1.0 | 3.0 | 0.00 | 0.00 | 0.00 | 69 | 1017.2 |
| 20260830120233 | 49 | 229 | 2.0 | 4.0 | 0.00 | 0.00 | 0.00 | 69 | 1017.1 |
| 20260830115528 | 49 | 221 | 1.0 | 4.0 | 0.00 | 0.00 | 0.00 | 68 | 1016.9 |
| 20260830115026 | 49 | 236 | 0.0 | 4.0 | 0.00 | 0.00 | 0.00 | 68 | 1017.0 |
| 20260830114719 | 49 | 256 | 1.0 | 4.0 | 0.00 | 0.00 | 0.00 | 67 | 1017.0 |
| 20260830114034 | 49 | 240 | 2.0 | 4.0 | 0.00 | 0.00 | 0.00 | 68 | 1017.0 |
| 20260830113542 | 49 | 240 | 2.0 | 4.0 | 0.00 | 0.00 | 0.00 | 68 | 1016.9 |
| 20260830113141 | 49 | 236 | 2.0 | 4.0 | 0.00 | 0.00 | 0.00 | 69 | 1016.9 |
| 20260830112527 | 49 | 233 | 2.0 | 4.0 | 0.00 | 0.00 | 0.00 | 69 | 1016.9 |
| 20260830112025 | 49 | 233 | 2.0 | 4.0 | 0.00 | 0.00 | 0.00 | 69 | 1017.1 |
| 20260830111634 | 50 | 240 | 2.0 | 4.0 | 0.00 | 0.00 | 0.00 | 68 | 1017.1 |
| 20260830111043 | 50 | 237 | 2.0 | 3.0 | 0.00 | 0.00 | 0.00 | 67 | 1017.1 |
| 20260830110537 | 50 | 232 | 2.0 | 4.0 | 0.00 | 0.00 | 0.00 | 68 | 1017.1 |
| 20260830110135 | 49 | 226 | 2.0 | 4.0 | 0.00 | 0.00 | 0.00 | 68 | 1017.1 |
| 20260830105524 | 49 | 238 | 1.0 | 4.0 | 0.00 | 0.00 | 0.00 | 69 | 1017.1 |
| 20260830105024 | 49 | 234 | 2.0 | 4.0 | 0.00 | 0.00 | 0.00 | 69 | 1017.0 |
| 20260830104717 | 49 | 233 | 2.0 | 4.0 | 0.00 | 0.00 | 0.00 | 68 | 1017.0 |
| 20260830104025 | 49 | 229 | 2.0 | 4.0 | 0.00 | 0.00 | 0.00 | 68 | 1017.1 |
| 20260830103541 | 49 | 240 | 2.0 | 5.0 | 0.00 | 0.00 | 0.00 | 69 | 1017.1 |
| 20260830103139 | 50 | 244 | 3.0 | 5.0 | 0.00 | 0.00 | 0.00 | 69 | 1017.1 |
| 20260830102536 | 50 | 240 | 3.0 | 5.0 | 0.00 | 0.00 | 0.00 | 68 | 1016.9 |
| 20260830102019 | 50 | 234 | 3.0 | 5.0 | 0.00 | 0.00 | 0.00 | 67 | 1017.1 |